[[[{"header":{"parameterUnit":"kt","parameterCategory":2,"dx":1,"dy":1,"la1":30.253999710083008,"la2":30.299108505249023,"lo1":-89.0895004272461,"lo2":-89.04439544677734,"nx":28,"ny":28,"refTime":"2022-10-22T21:00:00:Z","depth":"0","parameterNumber":2,"parameterNumberName":"U-component_of_CURRENTS"},"data":[-0.4584,-0.4522,-0.4508,-0.4456,-0.445,-0.4318,-0.4266,-0.4255,-0.4438,-0.486,-0.5369,-0.5708,-0.5668,-0.6065,-0.5919,-0.571,-0.5423,-0.5129,-0.5006,-0.5374,-0.5348,-0.5322,-0.537,-0.5576,-0.5576,-0.4722,-0.4718,-0.4714,-0.4642,-0.4636,-0.4621,-0.4563,-0.4569,-0.4588,-0.4573,-0.4503,-0.4582,-0.4975,-0.5176,-0.5671,-0.5755,-0.5689,-0.5621,-0.5388,-0.5041,-0.5182,-0.4895,-0.4855,-0.5069,-0.5113,-0.5267,-0.5267,-0.5267,-0.5267,-0.5266,-0.5266,-0.4748,-0.471,-0.4685,-0.4647,-0.4668,-0.4663,-0.4602,-0.47,-0.4743,-0.4866,-0.5,-0.5218,-0.533,-0.5209,-0.5038,-0.4925,-0.4659,-0.4885,-0.488,-0.4558,-0.4542,-0.4724,-0.4763,-0.4761,-0.476,-0.4758,-0.4757,0,-0.4805,-0.4795,-0.4754,-0.473,-0.4719,-0.4703,-0.4708,-0.4713,-0.4733,-0.4796,-0.4879,-0.4931,-0.49,-0.4939,-0.4808,-0.4703,-0.4515,-0.4582,-0.4653,-0.4857,-0.4568,-0.4538,-0.4682,-0.4708,-0.4706,-0.4705,-0.4704,-0.4703,-0.4862,-0.4841,-0.4793,-0.4777,-0.4751,-0.4729,-0.4731,-0.4725,-0.4727,-0.4766,-0.4765,-0.4753,-0.478,-0.4676,-0.4603,-0.4522,-0.4414,-0.4541,-0.455,-0.4648,-0.4659,-0.4364,-0.4339,-0.4682,-0.4685,-0.4687,-0.4689,0,-0.4887,-0.4868,-0.4822,-0.4781,-0.4777,-0.4745,-0.4737,-0.4737,-0.4724,-0.4724,-0.4715,-0.4696,-0.466,-0.4574,-0.4499,-0.4457,-0.4386,-0.4399,-0.4535,-0.4551,-0.4629,-0.4639,-0.4334,-0.4302,-0.44,-0.44,-0.44,0,-0.4897,-0.4876,-0.4836,-0.4813,-0.4784,-0.4764,-0.4744,-0.4722,-0.4703,-0.4705,-0.4663,-0.4662,-0.4565,-0.4527,-0.4477,-0.4434,-0.4417,-0.4408,-0.4409,-0.4515,-0.4526,-0.4613,-0.4631,-0.4371,-0.4371,-0.4371,-0.4371,0,-0.4898,-0.486,-0.4833,-0.482,-0.4776,-0.4761,-0.475,-0.4723,-0.4709,-0.4671,-0.4674,-0.4599,-0.4569,-0.4518,-0.4471,-0.4471,-0.4414,-0.441,-0.4414,-0.4417,-0.4528,-0.4541,-0.4597,-0.4371,-0.4371,-0.4371,-0.4371,0,-0.4885,-0.4852,-0.4822,-0.4789,-0.4782,-0.477,-0.4745,-0.4726,-0.4692,-0.4682,-0.464,-0.4619,-0.4549,-0.4542,-0.4468,-0.4482,-0.4462,-0.4442,-0.4441,-0.448,-0.4494,-0.4592,-0.458,-0.4665,-0.4446,-0.4447,-0.4447,0,-0.488,-0.4844,-0.4824,-0.4802,-0.4783,-0.4764,-0.4746,-0.4725,-0.4714,-0.4694,-0.4641,-0.4614,-0.4587,-0.4563,-0.4523,-0.4491,-0.4465,-0.4481,-0.4478,-0.4479,-0.45,-0.4462,-0.4581,-0.4582,-0.4453,-0.4453,-0.4452,0,-0.4879,-0.4835,-0.4831,-0.4815,-0.4786,-0.4775,-0.4753,-0.4733,-0.472,-0.4699,-0.4673,-0.4616,-0.4601,-0.4583,-0.4548,-0.4518,-0.4477,-0.4527,-0.4527,-0.4521,-0.4444,-0.4468,-0.4466,-0.447,-0.4469,-0.4468,-0.4457,0,-0.4843,-0.4835,-0.4826,-0.48,-0.4789,-0.4778,-0.4754,-0.4747,-0.4737,-0.4726,-0.469,-0.4654,-0.4627,-0.4611,-0.4593,-0.4547,-0.4564,-0.4565,-0.4579,-0.4549,-0.455,-0.4546,-0.4607,-0.4608,-0.4609,-0.4609,0,0,-0.4844,-0.4838,-0.4824,-0.4803,-0.4793,-0.478,-0.4768,-0.4755,-0.4734,-0.4724,-0.4727,-0.4683,-0.4668,-0.4615,-0.4598,-0.4599,-0.4601,-0.4613,-0.4568,-0.4563,-0.4559,-0.4558,-0.4553,-0.4611,-0.4611,-0.4611,-0.4611,0,-0.4825,-0.4834,-0.4826,-0.4813,-0.4789,-0.4779,-0.4774,-0.4755,-0.4745,-0.473,-0.471,-0.4683,-0.4682,-0.4652,-0.4638,-0.461,-0.4629,-0.4619,-0.4597,-0.4575,-0.4569,-0.4564,-0.4562,-0.4557,-0.4613,-0.4613,-0.4613,0,-0.4817,-0.4801,-0.4807,-0.4796,-0.4784,-0.4772,-0.4763,-0.4749,-0.4737,-0.473,-0.4719,-0.4706,-0.4693,-0.4673,-0.4668,-0.4676,-0.4649,-0.4663,-0.466,-0.4668,-0.4647,-0.464,-0.4634,-0.4708,-0.4708,-0.4708,0,0,-0.4798,-0.4796,-0.4782,-0.4791,-0.4784,-0.4766,-0.476,-0.4751,-0.4733,-0.4728,-0.4726,-0.4717,-0.4699,-0.4693,-0.4691,-0.4677,-0.4682,-0.4673,-0.4668,-0.4665,-0.467,-0.4649,-0.4642,-0.4709,-0.4709,-0.4709,0,0,-0.4787,-0.4769,-0.4772,-0.4783,-0.4771,-0.4749,-0.4747,-0.4739,-0.4727,-0.4723,-0.4718,-0.4717,-0.4702,-0.471,-0.4716,-0.4696,-0.4717,-0.4716,-0.4683,-0.4678,-0.4673,-0.4679,-0.4732,0,0,0,0,0,-0.4758,-0.477,-0.4773,-0.4772,-0.4766,-0.4751,-0.4748,-0.4739,-0.4732,-0.4735,-0.4717,-0.4731,-0.4709,-0.4714,-0.4715,-0.4703,-0.4716,-0.4714,-0.4713,-0.4668,-0.4663,-0.4658,0,0,0,0,0,0,-0.4757,-0.4758,-0.4771,-0.4752,-0.4749,-0.4751,-0.4742,-0.474,-0.4732,-0.4732,-0.473,-0.473,-0.473,-0.4715,-0.4715,-0.4704,-0.4732,-0.4715,-0.4714,-0.4713,-0.4666,-0.4662,-0.4658,0,0,0,0,0,-0.4757,-0.4757,-0.4755,-0.4751,-0.4749,-0.4735,-0.4743,-0.4741,-0.4737,-0.4732,-0.4732,-0.473,-0.473,-0.4731,-0.4715,-0.4704,-0.4732,-0.4732,-0.4715,-0.4714,-0.4713,-0.4664,0,0,0,0,0,0,-0.4757,-0.4755,-0.4754,-0.4752,-0.4751,-0.4735,-0.4735,-0.4741,-0.4738,-0.4737,-0.4732,-0.4731,-0.473,-0.4731,-0.4731,-0.4702,-0.4732,-0.4732,-0.4732,-0.4714,-0.4713,-0.4713,0,0,0,0,0,0,-0.4755,-0.4755,-0.4753,-0.4754,-0.4753,-0.4735,-0.4735,-0.4736,-0.4739,-0.4739,-0.4738,-0.4732,-0.4733,-0.473,-0.4731,-0.4732,-0.4731,-0.4732,-0.4732,-0.4732,-0.4713,-0.4713,0,0,0,0,0,0,-0.4754,-0.4754,-0.4755,-0.4754,-0.4752,-0.4734,-0.4736,-0.4735,-0.4729,-0.4739,-0.4729,-0.4729,-0.4733,-0.4733,-0.4731,-0.4732,-0.4732,-0.4732,-0.4732,-0.4732,-0.4732,0,0,0,0,0,0,0,-0.4753,-0.4763,-0.4762,-0.4753,-0.4752,-0.4736,-0.4735,-0.4735,-0.4729,-0.4729,-0.4729,-0.4729,-0.4731,-0.4731,-0.4731,-0.4732,0,0,-0.4731,-0.4732,0,0,0,0,0,0,0,0,-0.4762,-0.4763,-0.4762,-0.4761,-0.4761,-0.4736,-0.4735,-0.4735,-0.4729,-0.4729,-0.4729,-0.4729,-0.4731,-0.4731,-0.4731,0,0,0,0,0,0,0,0,0,0,0,0,0,0,0,-0.4762,-0.4762,0,-0.4736,-0.4735,-0.4735,-0.4729,-0.4729,-0.4729,-0.4729,-0.4731,-0.4731,-0.4731,0,0,0,0,0,0,0,0,0,0,0,0,0,0,0,0,0,0,0,0,0,0,0,0,0,0,0,0,0,0,0,0,0,0,0,0,0,0,0,0,0,0,0,0,0,0,0,0,0,0,0,0,0,0,0,0,0,0,0,0,0,0,0,0,0,0,0,0,0]}],[{"header":{"parameterUnit":"kt","parameterCategory":2,"dx":1,"dy":1,"la1":30.253999710083008,"la2":30.299108505249023,"lo1":-89.0895004272461,"lo2":-89.04439544677734,"nx":28,"ny":28,"refTime":"2022-10-22T21:00:00:Z","depth":"0","parameterNumber":3,"parameterNumberName":"V-component_of_CURRENTS"},"data":[-0.2546,-0.2548,-0.2559,-0.2679,-0.2728,-0.2854,-0.2924,-0.3019,-0.301,-0.2771,-0.2302,-0.1856,-0.0513,0.1045,0.1908,0.1819,0.2075,0.1991,0.21,0.1624,0.1535,0.1449,0.1592,0.2326,0.2329,0.2842,0.2851,0.2858,-0.2565,-0.2575,-0.2571,-0.2575,-0.2644,-0.2626,-0.2688,-0.2759,-0.2853,-0.2769,-0.2686,-0.1824,-0.1255,-0.071,0.0083,0.0399,0.0243,0.0603,0.0776,0.0762,-0.0198,-0.0116,0.0266,0.0266,0.0266,0.0265,0.0265,0.0264,-0.2598,-0.2576,-0.2544,-0.2525,-0.2535,-0.2577,-0.261,-0.2627,-0.264,-0.2642,-0.2449,-0.224,-0.1664,-0.1344,-0.1271,-0.0756,-0.085,-0.0595,-0.0292,-0.0299,-0.0139,-0.1231,-0.109,-0.1091,-0.1092,-0.1094,-0.1095,0,-0.2604,-0.2582,-0.2536,-0.2511,-0.2492,-0.2473,-0.2455,-0.2472,-0.2414,-0.2383,-0.2317,-0.2219,-0.1952,-0.1714,-0.1516,-0.1477,-0.1095,-0.1407,-0.0973,-0.0453,-0.0351,-0.0273,-0.1438,-0.132,-0.1323,-0.1325,-0.1326,-0.1328,-0.2621,-0.2591,-0.251,-0.2492,-0.2456,-0.2407,-0.2391,-0.2328,-0.2328,-0.2227,-0.223,-0.209,-0.2,-0.1825,-0.1718,-0.1619,-0.1363,-0.1476,-0.1497,-0.1063,-0.0742,-0.0694,-0.0635,-0.1359,-0.1355,-0.1352,-0.1349,0,-0.2638,-0.2587,-0.2523,-0.2442,-0.2422,-0.2381,-0.2323,-0.2308,-0.2241,-0.221,-0.2191,-0.209,-0.1987,-0.1904,-0.1838,-0.1814,-0.1521,-0.1733,-0.1623,-0.1599,-0.1147,-0.0865,-0.0521,-0.0422,-0.1657,-0.1655,-0.1653,0,-0.2631,-0.2589,-0.2512,-0.2477,-0.2423,-0.2359,-0.231,-0.2254,-0.2204,-0.2182,-0.2112,-0.2079,-0.2006,-0.1948,-0.1928,-0.1844,-0.1871,-0.1822,-0.1812,-0.1721,-0.1707,-0.1351,-0.1066,-0.1889,-0.1889,-0.1889,-0.189,0,-0.2653,-0.2561,-0.2503,-0.2474,-0.238,-0.2345,-0.23,-0.223,-0.2195,-0.213,-0.2111,-0.2052,-0.2012,-0.199,-0.1935,-0.1959,-0.1881,-0.1911,-0.1839,-0.1835,-0.1752,-0.1741,-0.1241,-0.189,-0.189,-0.189,-0.189,0,-0.2637,-0.2583,-0.2503,-0.2434,-0.2411,-0.2362,-0.229,-0.223,-0.2165,-0.2136,-0.2097,-0.2072,-0.2015,-0.2022,-0.1964,-0.1979,-0.1969,-0.1954,-0.1952,-0.1913,-0.1918,-0.1807,-0.1684,-0.1256,-0.1942,-0.1942,-0.1942,0,-0.2686,-0.2591,-0.2547,-0.247,-0.2425,-0.2378,-0.2316,-0.2255,-0.2213,-0.2167,-0.2122,-0.2073,-0.2062,-0.2041,-0.2018,-0.1989,-0.1972,-0.1991,-0.1999,-0.1999,-0.1961,-0.1863,-0.1746,-0.17,-0.1948,-0.1948,-0.1947,0,-0.2722,-0.2624,-0.2614,-0.2584,-0.2498,-0.2451,-0.2376,-0.231,-0.2283,-0.2212,-0.2175,-0.2085,-0.209,-0.2068,-0.2046,-0.2028,-0.1982,-0.2047,-0.2047,-0.2057,-0.1954,-0.1881,-0.187,-0.1986,-0.1986,-0.1985,-0.1952,0,-0.2736,-0.2688,-0.2653,-0.2578,-0.2527,-0.2475,-0.2415,-0.2367,-0.2339,-0.2309,-0.2236,-0.2187,-0.2148,-0.2115,-0.2106,-0.2056,-0.2071,-0.2081,-0.2142,-0.2077,-0.2067,-0.2063,-0.2131,-0.2133,-0.2134,-0.2135,0,0,-0.2809,-0.2744,-0.2699,-0.2642,-0.2606,-0.2568,-0.2518,-0.2471,-0.2395,-0.2375,-0.2375,-0.2276,-0.2252,-0.2188,-0.2157,-0.213,-0.2135,-0.2177,-0.2097,-0.2092,-0.2088,-0.2078,-0.2072,-0.2137,-0.2137,-0.2137,-0.2138,0,-0.2815,-0.2778,-0.2727,-0.2682,-0.2611,-0.2579,-0.2561,-0.2496,-0.2475,-0.2397,-0.2398,-0.2352,-0.2286,-0.2267,-0.2248,-0.215,-0.2196,-0.2137,-0.2121,-0.2106,-0.21,-0.2095,-0.2083,-0.2077,-0.2141,-0.214,-0.214,0,-0.2857,-0.281,-0.2784,-0.2701,-0.2662,-0.2609,-0.2616,-0.2556,-0.2514,-0.2524,-0.2463,-0.2436,-0.241,-0.2345,-0.2319,-0.2348,-0.2259,-0.2276,-0.2269,-0.2294,-0.2283,-0.2275,-0.2268,-0.2368,-0.2369,-0.237,0,0,-0.2864,-0.2816,-0.2754,-0.27,-0.2675,-0.2629,-0.2595,-0.258,-0.2537,-0.2523,-0.2506,-0.2481,-0.2439,-0.2424,-0.2388,-0.2326,-0.2345,-0.2304,-0.2293,-0.2284,-0.2304,-0.2291,-0.2282,-0.2373,-0.2373,-0.2373,0,0,-0.2872,-0.2803,-0.2796,-0.2734,-0.2679,-0.2621,-0.2587,-0.2576,-0.2535,-0.2543,-0.2545,-0.2541,-0.2479,-0.248,-0.2516,-0.2421,-0.2464,-0.2456,-0.2428,-0.2414,-0.2404,-0.244,-0.2574,0,0,0,0,0,-0.2851,-0.2807,-0.2802,-0.2785,-0.2695,-0.2619,-0.2606,-0.2589,-0.2607,-0.258,-0.256,-0.2596,-0.2498,-0.2531,-0.2523,-0.2494,-0.2411,-0.2404,-0.2398,-0.2345,-0.2331,-0.2319,0,0,0,0,0,0,-0.2844,-0.2825,-0.2802,-0.2743,-0.2722,-0.2621,-0.2654,-0.2648,-0.261,-0.2614,-0.2594,-0.2595,-0.2602,-0.2537,-0.2529,-0.2502,-0.2577,-0.2408,-0.2402,-0.2397,-0.234,-0.2329,-0.2319,0,0,0,0,0,-0.2838,-0.2822,-0.2688,-0.2743,-0.2725,-0.2685,-0.2657,-0.2652,-0.2628,-0.2612,-0.2612,-0.2618,-0.26,-0.2595,-0.2533,-0.2505,-0.2583,-0.2579,-0.2404,-0.24,-0.2396,-0.2335,0,0,0,0,0,0,-0.2834,-0.282,-0.2683,-0.2676,-0.2769,-0.2691,-0.268,-0.2656,-0.2629,-0.2626,-0.2637,-0.2641,-0.2598,-0.2594,-0.259,-0.2505,-0.2587,-0.2584,-0.2582,-0.2401,-0.2397,-0.2394,0,0,0,0,0,0,-0.2827,-0.2814,-0.268,-0.2714,-0.271,-0.2696,-0.2687,-0.2646,-0.2631,-0.2658,-0.2658,-0.2639,-0.2619,-0.2594,-0.259,-0.2526,-0.2591,-0.2588,-0.2586,-0.2584,-0.2398,-0.2395,0,0,0,0,0,0,-0.2821,-0.2809,-0.2716,-0.2713,-0.2711,-0.263,-0.2662,-0.2582,-0.2624,-0.2661,-0.2631,-0.2634,-0.2619,-0.2614,-0.2591,-0.2527,-0.2526,-0.2591,-0.2589,-0.2587,-0.2586,0,0,0,0,0,0,0,-0.2816,-0.2903,-0.2722,-0.2713,-0.2711,-0.2607,-0.2606,-0.2604,-0.2625,-0.2627,-0.263,-0.2632,-0.2608,-0.2605,-0.2601,-0.2528,0,0,-0.2591,-0.259,0,0,0,0,0,0,0,0,-0.2907,-0.2904,-0.2722,-0.272,-0.2718,-0.2607,-0.2606,-0.2604,-0.2625,-0.2627,-0.2629,-0.2631,-0.2607,-0.2604,-0.2602,0,0,0,0,0,0,0,0,0,0,0,0,0,0,0,-0.2722,-0.272,0,-0.2607,-0.2606,-0.2605,-0.2626,-0.2627,-0.2629,-0.2631,-0.2606,-0.2604,-0.2602,0,0,0,0,0,0,0,0,0,0,0,0,0,0,0,0,0,0,0,0,0,0,0,0,0,0,0,0,0,0,0,0,0,0,0,0,0,0,0,0,0,0,0,0,0,0,0,0,0,0,0,0,0,0,0,0,0,0,0,0,0,0,0,0,0,0,0,0,0]}]],[[{"header":{"parameterUnit":"kt","parameterCategory":2,"dx":1,"dy":1,"la1":30.253999710083008,"la2":30.299108505249023,"lo1":-89.0895004272461,"lo2":-89.04439544677734,"nx":28,"ny":28,"refTime":"2022-10-22T21:00:00:Z","depth":"2","parameterNumber":2,"parameterNumberName":"U-component_of_CURRENTS"},"data":[-0.1206,-0.115,-0.1174,-0.1354,-0.1513,-0.1715,-0.1924,-0.221,-0.2379,-0.2563,-0.2542,-0.2503,-0.2165,-0.1605,-0.1307,-0.1135,-0.1259,-0.1064,-0.1539,-0.1582,-0.1625,-0.1526,-0.1522,0,0,0,0,0,-0.1294,-0.13,-0.1346,-0.1482,-0.162,-0.1735,-0.2066,-0.2192,-0.2676,-0.2873,-0.3199,-0.2679,-0.246,-0.197,-0.1629,-0.1497,-0.1523,-0.1241,-0.1223,-0.1265,-0.1303,-0.1275,-0.0886,-0.0885,-0.0885,-0.0884,0,0,-0.1455,-0.1439,-0.147,-0.1545,-0.1673,-0.1905,-0.2028,-0.2311,-0.2666,-0.2949,-0.3208,-0.329,-0.2774,-0.2336,-0.2132,-0.1857,-0.2022,-0.1719,-0.1735,-0.1756,-0.1747,-0.1709,-0.1486,-0.1489,-0.1491,-0.1494,-0.1496,0,-0.1566,-0.158,-0.1622,-0.1691,-0.176,-0.1906,-0.2046,-0.2176,-0.2435,-0.268,-0.3031,-0.3188,-0.3011,-0.2787,-0.2459,-0.2344,-0.2068,-0.1972,-0.2356,-0.1961,-0.1922,-0.1939,-0.197,-0.1745,-0.1749,-0.1753,-0.1755,-0.1757,-0.17,-0.1682,-0.1798,-0.1837,-0.1884,-0.197,-0.205,-0.2226,-0.2331,-0.259,-0.2657,-0.2688,-0.2837,-0.2713,-0.2578,-0.2446,-0.2449,-0.2077,-0.2113,-0.2458,-0.2472,-0.2487,-0.25,-0.1807,-0.1801,-0.1795,-0.1791,0,-0.1765,-0.1828,-0.1874,-0.2006,-0.205,-0.2087,-0.2258,-0.2321,-0.2431,-0.2547,-0.2562,-0.2685,-0.2677,-0.2621,-0.2603,-0.2568,-0.2524,-0.2505,-0.227,-0.2244,-0.2511,-0.2521,-0.2373,-0.2369,-0.2366,-0.2364,-0.2362,0,-0.1903,-0.1934,-0.2046,-0.2059,-0.212,-0.2256,-0.2309,-0.2402,-0.2506,-0.2602,-0.262,-0.2704,-0.2681,-0.2674,-0.2669,-0.2621,-0.2641,-0.2639,-0.2638,-0.2458,-0.2439,-0.2834,-0.2849,-0.2711,-0.2713,-0.2714,-0.2714,0,-0.2,-0.2092,-0.2104,-0.215,-0.2311,-0.2337,-0.2425,-0.2531,-0.2604,-0.2638,-0.2684,-0.2675,-0.2708,-0.2683,-0.273,-0.2759,-0.2707,-0.2761,-0.2688,-0.2683,-0.252,-0.2504,-0.2716,-0.2716,-0.2716,-0.2717,-0.2717,0,-0.2122,-0.2167,-0.2176,-0.2332,-0.2362,-0.2399,-0.2531,-0.259,-0.2663,-0.271,-0.272,-0.2774,-0.2775,-0.2827,-0.2815,-0.284,-0.2839,-0.2867,-0.2863,-0.2862,-0.2904,-0.2574,-0.2397,-0.2824,-0.2825,-0.2827,-0.2828,0,-0.2223,-0.2239,-0.2313,-0.2362,-0.2403,-0.2538,-0.2587,-0.2675,-0.2741,-0.2784,-0.2827,-0.2871,-0.2915,-0.2938,-0.2926,-0.2989,-0.294,-0.2998,-0.2983,-0.2982,-0.2918,-0.28,-0.2575,-0.2433,-0.2845,-0.2843,-0.2842,0,-0.2306,-0.2399,-0.2399,-0.2455,-0.2575,-0.2634,-0.2665,-0.2758,-0.2794,-0.2841,-0.2866,-0.2927,-0.2961,-0.3002,-0.3061,-0.3055,-0.2968,-0.309,-0.3093,-0.3012,-0.2889,-0.2831,-0.2813,-0.2993,-0.2992,-0.2991,-0.2856,0,-0.2471,-0.2494,-0.2479,-0.2563,-0.2625,-0.2651,-0.2778,-0.2814,-0.2877,-0.2948,-0.2976,-0.3055,-0.3114,-0.3123,-0.3183,-0.3153,-0.3149,-0.3202,-0.3234,-0.3174,-0.3124,-0.3112,-0.3286,-0.3289,-0.3291,-0.3293,0,0,-0.2566,-0.258,-0.2666,-0.2686,-0.2744,-0.2869,-0.2889,-0.2947,-0.3055,-0.3079,-0.3098,-0.3198,-0.3247,-0.3272,-0.3262,-0.3291,-0.3272,-0.3278,-0.3215,-0.3206,-0.3198,-0.3146,-0.3132,-0.3297,-0.3297,-0.3298,-0.3299,0,-0.2637,-0.2688,-0.2666,-0.2738,-0.2833,-0.292,-0.2922,-0.304,-0.3075,-0.3122,-0.3194,-0.322,-0.3282,-0.3327,-0.3358,-0.332,-0.3327,-0.3318,-0.3246,-0.3234,-0.3222,-0.3211,-0.3157,-0.3143,-0.3304,-0.3304,-0.3304,0,-0.2748,-0.2812,-0.2812,-0.2908,-0.2972,-0.3018,-0.3104,-0.3136,-0.317,-0.3265,-0.3285,-0.3333,-0.3406,-0.341,-0.3412,-0.3433,-0.3376,-0.3416,-0.3407,-0.3416,-0.3407,-0.3393,-0.3381,-0.3532,-0.3532,-0.3532,0,0,-0.2808,-0.2811,-0.2945,-0.2938,-0.2971,-0.3089,-0.3124,-0.3181,-0.325,-0.3268,-0.3321,-0.337,-0.341,-0.3416,-0.346,-0.3458,-0.3471,-0.3437,-0.3426,-0.3417,-0.3421,-0.341,-0.3397,-0.3533,-0.3533,-0.3533,0,0,-0.2838,-0.2953,-0.3005,-0.3004,-0.3089,-0.3216,-0.3207,-0.3274,-0.3318,-0.3306,-0.3387,-0.3398,-0.3399,-0.3443,-0.3444,-0.3447,-0.3501,-0.3502,-0.3392,-0.3379,-0.3369,-0.3361,-0.3487,0,0,0,0,0,-0.2979,-0.2943,-0.299,-0.3007,-0.3127,-0.3204,-0.3222,-0.3294,-0.3317,-0.3309,-0.3365,-0.3386,-0.3463,-0.3464,-0.3474,-0.3427,-0.3538,-0.3537,-0.3536,-0.3396,-0.3383,-0.3371,0,0,0,0,0,0,-0.2986,-0.3006,-0.2992,-0.3115,-0.3144,-0.3205,-0.3265,-0.3285,-0.3317,-0.3322,-0.3382,-0.339,-0.3438,-0.3462,-0.347,-0.3424,-0.3484,-0.3538,-0.3537,-0.3536,-0.3392,-0.3381,-0.3371,0,0,0,0,0,-0.2993,-0.3009,-0.317,-0.3117,-0.3142,-0.3245,-0.3264,-0.3281,-0.3298,-0.3381,-0.339,-0.3345,-0.3438,-0.3446,-0.3467,-0.3418,-0.3479,-0.3482,-0.3537,-0.3536,-0.3536,-0.3386,0,0,0,0,0,0,-0.2998,-0.3031,-0.3178,-0.319,-0.3106,-0.3241,-0.326,-0.3276,-0.3354,-0.3367,-0.3348,-0.335,-0.3438,-0.3444,-0.3451,-0.3412,-0.3474,-0.3477,-0.3479,-0.3537,-0.3536,-0.3536,0,0,0,0,0,0,-0.3024,-0.304,-0.3184,-0.3165,-0.3176,-0.3238,-0.3254,-0.3287,-0.3351,-0.3315,-0.3321,-0.3347,-0.3404,-0.3443,-0.3448,-0.35,-0.3471,-0.3474,-0.3476,-0.3477,-0.3536,-0.3536,0,0,0,0,0,0,-0.3033,-0.3047,-0.3162,-0.3171,-0.318,-0.3324,-0.3266,-0.3367,-0.3388,-0.3308,-0.3386,-0.3386,-0.3401,-0.3409,-0.3447,-0.3496,-0.3499,-0.3471,-0.3473,-0.3474,-0.3475,0,0,0,0,0,0,0,-0.3041,-0.2915,-0.3106,-0.3175,-0.3183,-0.3306,-0.3309,-0.3312,-0.3388,-0.3387,-0.3387,-0.3386,-0.3454,-0.3457,-0.346,-0.3493,0,0,-0.347,-0.3472,0,0,0,0,0,0,0,0,-0.2912,-0.2915,-0.3107,-0.311,-0.3112,-0.3307,-0.3309,-0.3312,-0.3388,-0.3387,-0.3387,-0.3386,-0.3455,-0.3457,-0.346,0,0,0,0,0,0,0,0,0,0,0,0,0,0,0,-0.3107,-0.3109,0,-0.3307,-0.3309,-0.3311,-0.3388,-0.3387,-0.3387,-0.3386,-0.3455,-0.3458,-0.346,0,0,0,0,0,0,0,0,0,0,0,0,0,0,0,0,0,0,0,0,0,0,0,0,0,0,0,0,0,0,0,0,0,0,0,0,0,0,0,0,0,0,0,0,0,0,0,0,0,0,0,0,0,0,0,0,0,0,0,0,0,0,0,0,0,0,0,0,0]}],[{"header":{"parameterUnit":"kt","parameterCategory":2,"dx":1,"dy":1,"la1":30.253999710083008,"la2":30.299108505249023,"lo1":-89.0895004272461,"lo2":-89.04439544677734,"nx":28,"ny":28,"refTime":"2022-10-22T21:00:00:Z","depth":"2","parameterNumber":3,"parameterNumberName":"V-component_of_CURRENTS"},"data":[0.0896,0.0735,0.0637,0.0249,0.0041,-0.0266,-0.0392,-0.0481,-0.0498,-0.0469,-0.0386,-0.0147,0.045,0.0511,0.0905,0.1155,0.1179,0.1158,0.1157,0.1161,0.1156,0.1463,0.1465,0,0,0,0,0,0.0937,0.0824,0.0663,0.0382,0.0164,0.0094,-0.0085,-0.0197,-0.0217,-0.0148,0.0055,0.0301,0.0675,0.0893,0.1294,0.1531,0.1611,0.1373,0.141,0.1412,0.1414,0.1412,0.1392,0.1391,0.139,0.139,0,0,0.0974,0.0893,0.0722,0.0526,0.0356,0.018,0.0047,0.0005,0.0007,0.0018,0.0381,0.0615,0.0857,0.109,0.1321,0.1474,0.1532,0.1413,0.1415,0.1417,0.1415,0.1364,0.1395,0.1395,0.1395,0.1395,0.1394,0,0.0962,0.0891,0.0795,0.0576,0.0447,0.0315,0.021,0.0166,0.0187,0.0274,0.0477,0.0701,0.1022,0.1258,0.1377,0.1484,0.1363,0.1383,0.1362,0.1471,0.142,0.1451,0.1449,0.1466,0.1466,0.1466,0.1466,0.1466,0.0935,0.0883,0.0705,0.0608,0.0549,0.0446,0.0375,0.0364,0.0336,0.0475,0.0482,0.0636,0.0853,0.1078,0.1269,0.1424,0.1337,0.1384,0.1434,0.1371,0.1403,0.1402,0.1401,0.1467,0.1467,0.1467,0.1467,0,0.0918,0.0838,0.0739,0.063,0.0584,0.0532,0.0449,0.0427,0.0481,0.0502,0.0519,0.0711,0.0855,0.0983,0.1162,0.1248,0.1371,0.1401,0.1377,0.1406,0.1408,0.1406,0.1414,0.1413,0.1412,0.1411,0.1411,0,0.0883,0.0826,0.0706,0.0673,0.059,0.0585,0.0547,0.0576,0.0606,0.0621,0.0747,0.0826,0.0979,0.1079,0.1191,0.1306,0.1334,0.1405,0.1438,0.1461,0.1459,0.155,0.1557,0.1485,0.1485,0.1485,0.1486,0,0.0896,0.0801,0.0732,0.0712,0.0662,0.0646,0.0634,0.0693,0.07,0.0783,0.0802,0.0934,0.0994,0.1099,0.1235,0.1247,0.136,0.1419,0.1439,0.1436,0.1536,0.154,0.1486,0.1486,0.1486,0.1486,0.1486,0,0.0905,0.0841,0.0769,0.0711,0.0701,0.0685,0.0703,0.0719,0.0802,0.0839,0.0923,0.101,0.1102,0.1145,0.1287,0.1263,0.132,0.1388,0.1391,0.1443,0.1497,0.1503,0.1433,0.1427,0.1427,0.1427,0.1426,0,0.093,0.0851,0.0845,0.0789,0.0752,0.0785,0.0795,0.0835,0.0882,0.0924,0.1039,0.1108,0.1174,0.1208,0.1257,0.137,0.1381,0.1369,0.1519,0.1523,0.1485,0.1408,0.1433,0.1429,0.1423,0.1423,0.1423,0,0.0967,0.0902,0.0895,0.0864,0.0866,0.0863,0.0874,0.0911,0.0927,0.0985,0.1021,0.115,0.12,0.1283,0.1371,0.1412,0.1377,0.145,0.1457,0.1425,0.1436,0.1405,0.1405,0.1424,0.1425,0.1426,0.142,0,0.0984,0.0947,0.0926,0.0908,0.0913,0.0897,0.0938,0.095,0.0977,0.1035,0.1107,0.1231,0.1348,0.1372,0.1443,0.1481,0.1486,0.1555,0.1624,0.1567,0.157,0.1572,0.1605,0.1609,0.1612,0.1614,0,0,0.1033,0.0995,0.1006,0.0983,0.0984,0.1025,0.1008,0.105,0.1121,0.1153,0.1161,0.1347,0.1444,0.1553,0.153,0.1586,0.1602,0.1601,0.1594,0.159,0.1588,0.1588,0.1586,0.1619,0.162,0.1621,0.1622,0,0.1052,0.1037,0.1006,0.1015,0.1026,0.1067,0.1048,0.1102,0.1132,0.1178,0.1276,0.1342,0.1472,0.1572,0.1643,0.1616,0.169,0.1628,0.1559,0.1615,0.1608,0.1603,0.16,0.1596,0.1629,0.1628,0.1628,0,0.1094,0.1094,0.1082,0.1086,0.1117,0.1121,0.1176,0.1182,0.1197,0.1332,0.1372,0.1454,0.1596,0.1657,0.1689,0.1728,0.1772,0.1777,0.1765,0.1782,0.1847,0.1838,0.183,0.1929,0.1929,0.1929,0,0,0.1112,0.1085,0.1119,0.1097,0.1099,0.1165,0.1183,0.1216,0.1284,0.1314,0.1401,0.1503,0.1594,0.1643,0.1736,0.1796,0.1853,0.1805,0.1791,0.1779,0.1788,0.1849,0.1841,0.193,0.193,0.193,0,0,0.1137,0.1148,0.1159,0.1133,0.1161,0.1247,0.1248,0.1282,0.1353,0.1356,0.1486,0.1516,0.1567,0.1661,0.1653,0.1753,0.1822,0.1826,0.1674,0.1659,0.1646,0.163,0.176,0,0,0,0,0,0.1173,0.114,0.1149,0.1149,0.1204,0.1236,0.1251,0.131,0.1327,0.1323,0.1414,0.1487,0.1685,0.1682,0.1713,0.1696,0.1939,0.1937,0.1936,0.1756,0.1738,0.1723,0,0,0,0,0,0,0.1174,0.1173,0.1151,0.1225,0.1238,0.1238,0.1301,0.1319,0.1328,0.1334,0.1469,0.1493,0.1593,0.1674,0.17,0.1682,0.1752,0.1938,0.1937,0.1936,0.175,0.1735,0.1723,0,0,0,0,0,0.1175,0.1174,0.1225,0.1229,0.1241,0.1312,0.1301,0.1316,0.133,0.1467,0.149,0.1362,0.1591,0.1619,0.169,0.1666,0.1734,0.1744,0.1937,0.1936,0.1935,0.1743,0,0,0,0,0,0,0.1175,0.1226,0.1232,0.124,0.1217,0.1314,0.1324,0.1313,0.1466,0.1485,0.137,0.1374,0.1591,0.1613,0.1634,0.1653,0.172,0.173,0.1736,0.1936,0.1936,0.1935,0,0,0,0,0,0,0.1226,0.1232,0.1237,0.1217,0.1225,0.1315,0.1324,0.1422,0.1469,0.1365,0.137,0.137,0.1562,0.1608,0.1625,0.1778,0.1709,0.1719,0.1725,0.1729,0.1936,0.1935,0,0,0,0,0,0,0.1231,0.1236,0.1216,0.1222,0.1229,0.134,0.1409,0.1468,0.142,0.136,0.1418,0.1418,0.1557,0.1575,0.1619,0.1764,0.1774,0.171,0.1716,0.172,0.1723,0,0,0,0,0,0,0,0.1235,0.1164,0.1166,0.1226,0.1232,0.1316,0.132,0.1324,0.142,0.1419,0.1419,0.1418,0.1657,0.1667,0.1677,0.1752,0,0,0.1709,0.1713,0,0,0,0,0,0,0,0,0.1165,0.1164,0.1166,0.1167,0.1168,0.1317,0.132,0.1323,0.142,0.1419,0.1419,0.1418,0.166,0.1668,0.1676,0,0,0,0,0,0,0,0,0,0,0,0,0,0,0,0.1166,0.1167,0,0.1318,0.132,0.1323,0.142,0.1419,0.1419,0.1418,0.1662,0.1669,0.1676,0,0,0,0,0,0,0,0,0,0,0,0,0,0,0,0,0,0,0,0,0,0,0,0,0,0,0,0,0,0,0,0,0,0,0,0,0,0,0,0,0,0,0,0,0,0,0,0,0,0,0,0,0,0,0,0,0,0,0,0,0,0,0,0,0,0,0,0,0]}]],[[{"header":{"parameterUnit":"kt","parameterCategory":2,"dx":1,"dy":1,"la1":30.253999710083008,"la2":30.299108505249023,"lo1":-89.0895004272461,"lo2":-89.04439544677734,"nx":28,"ny":28,"refTime":"2022-10-22T21:00:00:Z","depth":"4","parameterNumber":2,"parameterNumberName":"U-component_of_CURRENTS"},"data":[-0.0718,-0.0724,-0.069,-0.0556,-0.05,-0.0461,-0.0469,-0.052,-0.0484,-0.0579,-0.0584,-0.0712,-0.0722,-0.075,-0.0751,-0.0765,-0.1254,-0.0877,-0.0876,-0.1791,-0.1845,-0.1892,-0.1907,0,0,0,0,0,-0.0757,-0.0731,-0.0722,-0.068,-0.0668,-0.067,-0.0698,-0.0764,-0.0827,-0.0733,-0.0861,-0.075,-0.077,-0.0808,-0.0774,-0.0859,-0.1311,-0.0822,-0.16,-0.1825,-0.1884,-0.1878,0,0,0,0,0,0,-0.0799,-0.078,-0.0799,-0.0808,-0.082,-0.0762,-0.0841,-0.0826,-0.0905,-0.1091,-0.0917,-0.1058,-0.1174,-0.1186,-0.1021,-0.1045,-0.1326,-0.1549,-0.1619,-0.1677,-0.1618,-0.1313,-0.0793,0,0,0,0,0,-0.0829,-0.0862,-0.0861,-0.0886,-0.0928,-0.0944,-0.1043,-0.104,-0.1257,-0.1478,-0.1403,-0.1497,-0.1373,-0.1528,-0.1385,-0.1441,-0.2104,-0.1841,-0.1888,-0.2427,-0.2247,-0.218,-0.2206,-0.2108,-0.2116,-0.212,-0.2123,0,-0.0892,-0.0894,-0.0934,-0.0943,-0.0982,-0.1109,-0.1188,-0.1455,-0.1502,-0.1703,-0.1714,-0.1865,-0.2049,-0.1778,-0.1985,-0.2004,-0.2024,-0.1986,-0.2558,-0.2343,-0.2258,-0.227,-0.2279,-0.2171,-0.2167,-0.2163,-0.2159,0,-0.0927,-0.0957,-0.0951,-0.1022,-0.1059,-0.1142,-0.1321,-0.1411,-0.1757,-0.1899,-0.2121,-0.2469,-0.2528,-0.2646,-0.2752,-0.2775,-0.2685,-0.251,-0.2768,-0.2684,-0.237,-0.236,-0.2249,-0.2232,-0.2217,-0.2205,-0.2194,0,-0.0979,-0.0979,-0.1033,-0.1037,-0.1081,-0.1204,-0.1326,-0.155,-0.1812,-0.19,-0.2459,-0.2561,-0.3095,-0.3054,-0.3161,-0.2983,-0.3217,-0.301,-0.2909,-0.3419,-0.3403,-0.3343,-0.3318,-0.3586,-0.3588,-0.3589,-0.3591,0,-0.1027,-0.1048,-0.1046,-0.106,-0.1137,-0.1216,-0.133,-0.155,-0.1666,-0.2137,-0.23,-0.2748,-0.3008,-0.3223,-0.3239,-0.3412,-0.3249,-0.346,-0.2997,-0.2953,-0.3344,-0.3316,-0.3593,-0.3594,-0.3594,-0.3595,-0.3596,0,-0.1082,-0.109,-0.1098,-0.1144,-0.1166,-0.1203,-0.1372,-0.1487,-0.1774,-0.1959,-0.2354,-0.2572,-0.2974,-0.306,-0.333,-0.3342,-0.3365,-0.3342,-0.3334,-0.2843,-0.2648,-0.2863,-0.3063,-0.3061,-0.3059,-0.3057,-0.3056,0,-0.1101,-0.1116,-0.1158,-0.1169,-0.1182,-0.1299,-0.1384,-0.1525,-0.1671,-0.1864,-0.2182,-0.2444,-0.2627,-0.2873,-0.3048,-0.311,-0.3199,-0.3179,-0.3091,-0.3082,-0.2673,-0.2767,-0.3282,-0.3032,-0.3035,-0.3037,-0.3039,0,-0.113,-0.1187,-0.1197,-0.1204,-0.1282,-0.1303,-0.1414,-0.1537,-0.1624,-0.1864,-0.2037,-0.2352,-0.2575,-0.2662,-0.2819,-0.2947,-0.3126,-0.2962,-0.2962,-0.2861,-0.3252,-0.2784,-0.2751,-0.3248,-0.3255,-0.3261,-0.3022,0,-0.1163,-0.1191,-0.1207,-0.1257,-0.1292,-0.1322,-0.1407,-0.151,-0.1608,-0.1694,-0.1957,-0.2122,-0.2357,-0.2416,-0.2473,-0.2756,-0.2654,-0.2671,-0.2629,-0.279,-0.2638,-0.2652,-0.2421,-0.2416,-0.2413,-0.241,0,0,-0.1172,-0.1199,-0.1266,-0.1287,-0.131,-0.1381,-0.1394,-0.1456,-0.1551,-0.1634,-0.167,-0.1968,-0.2038,-0.227,-0.2381,-0.2358,-0.2353,-0.2446,-0.2677,-0.2707,-0.2735,-0.2605,-0.2622,-0.2404,-0.2402,-0.2401,-0.24,0,-0.1181,-0.1237,-0.1258,-0.1292,-0.1356,-0.1384,-0.1396,-0.1472,-0.153,-0.162,-0.1685,-0.1855,-0.1961,-0.2089,-0.215,-0.2296,-0.2291,-0.2348,-0.253,-0.2643,-0.2677,-0.2708,-0.2587,-0.2606,-0.2391,-0.2392,-0.2392,0,-0.1195,-0.1233,-0.1254,-0.1312,-0.135,-0.1373,-0.1402,-0.1452,-0.1484,-0.1523,-0.1615,-0.1716,-0.1779,-0.1938,-0.2,-0.1971,-0.2207,-0.2153,-0.2169,-0.2191,-0.2302,-0.2341,-0.2375,-0.1939,-0.1938,-0.1938,0,0,-0.1201,-0.1237,-0.1289,-0.1316,-0.1343,-0.1384,-0.1406,-0.1442,-0.1488,-0.1512,-0.1583,-0.1657,-0.1748,-0.1815,-0.1869,-0.1991,-0.1953,-0.2106,-0.2127,-0.2145,-0.2177,-0.2291,-0.2328,-0.1935,-0.1935,-0.1935,0,0,-0.1201,-0.1265,-0.1289,-0.1325,-0.1363,-0.1405,-0.1431,-0.1448,-0.1499,-0.1523,-0.1571,-0.1591,-0.1718,-0.1718,-0.1675,-0.1931,-0.1829,-0.1838,-0.1988,-0.2014,-0.2035,-0.2068,-0.1716,0,0,0,0,0,-0.1237,-0.1254,-0.1275,-0.1288,-0.1354,-0.139,-0.1399,-0.1448,-0.146,-0.1478,-0.1531,-0.1564,-0.1724,-0.1686,-0.1701,-0.1866,-0.1901,-0.1907,-0.1913,-0.2129,-0.2156,-0.218,0,0,0,0,0,0,-0.1242,-0.1255,-0.1275,-0.1315,-0.1331,-0.139,-0.1414,-0.1427,-0.146,-0.1468,-0.155,-0.1566,-0.161,-0.1682,-0.1695,-0.1854,-0.1711,-0.1904,-0.1909,-0.1913,-0.2138,-0.2161,-0.218,0,0,0,0,0,-0.1246,-0.1257,-0.1356,-0.1316,-0.1329,-0.1393,-0.1415,-0.1426,-0.1456,-0.1527,-0.1544,-0.1494,-0.1608,-0.1625,-0.169,-0.1849,-0.1703,-0.1707,-0.1907,-0.1911,-0.1915,-0.2149,0,0,0,0,0,0,-0.1249,-0.1261,-0.1359,-0.1365,-0.1328,-0.1392,-0.1404,-0.1425,-0.1515,-0.153,-0.1474,-0.1479,-0.1606,-0.1619,-0.1632,-0.185,-0.1696,-0.1701,-0.1703,-0.191,-0.1913,-0.1916,0,0,0,0,0,0,-0.1255,-0.1265,-0.1362,-0.1374,-0.1382,-0.139,-0.1402,-0.1446,-0.1517,-0.1457,-0.1463,-0.1475,-0.1605,-0.1615,-0.1625,-0.169,-0.169,-0.1695,-0.1698,-0.17,-0.1913,-0.1915,0,0,0,0,0,0,-0.126,-0.1269,-0.1373,-0.1379,-0.1385,-0.1449,-0.1432,-0.1508,-0.1496,-0.1453,-0.15,-0.1502,-0.1601,-0.1612,-0.1621,-0.1681,-0.1688,-0.169,-0.1694,-0.1696,-0.1697,0,0,0,0,0,0,0,-0.1264,-0.1199,-0.1329,-0.1382,-0.1388,-0.1416,-0.1417,-0.1419,-0.1496,-0.1498,-0.1499,-0.1501,-0.1664,-0.1669,-0.1674,-0.1673,0,0,-0.169,-0.1692,0,0,0,0,0,0,0,0,-0.1196,-0.1198,-0.1329,-0.133,-0.1332,-0.1416,-0.1417,-0.1418,-0.1496,-0.1498,-0.1499,-0.15,-0.1666,-0.167,-0.1674,0,0,0,0,0,0,0,0,0,0,0,0,0,0,0,-0.1329,-0.133,0,-0.1416,-0.1417,-0.1418,-0.1497,-0.1498,-0.1499,-0.15,-0.1667,-0.167,-0.1673,0,0,0,0,0,0,0,0,0,0,0,0,0,0,0,0,0,0,0,0,0,0,0,0,0,0,0,0,0,0,0,0,0,0,0,0,0,0,0,0,0,0,0,0,0,0,0,0,0,0,0,0,0,0,0,0,0,0,0,0,0,0,0,0,0,0,0,0,0]}],[{"header":{"parameterUnit":"kt","parameterCategory":2,"dx":1,"dy":1,"la1":30.253999710083008,"la2":30.299108505249023,"lo1":-89.0895004272461,"lo2":-89.04439544677734,"nx":28,"ny":28,"refTime":"2022-10-22T21:00:00:Z","depth":"4","parameterNumber":3,"parameterNumberName":"V-component_of_CURRENTS"},"data":[-0.0914,-0.0987,-0.0993,-0.108,-0.1158,-0.1294,-0.1363,-0.1389,-0.1287,-0.1293,-0.1146,-0.1107,-0.0844,-0.1045,-0.0587,-0.0536,-0.0383,-0.0239,-0.0232,-0.0031,-0.0036,-0.0039,-0.0104,0,0,0,0,0,-0.0909,-0.0936,-0.1032,-0.1147,-0.1282,-0.1366,-0.1466,-0.1517,-0.1534,-0.1397,-0.1435,-0.1202,-0.0923,-0.0825,-0.0603,-0.0615,-0.0321,-0.0344,-0.0174,-0.0034,-0.0039,-0.01,0,0,0,0,0,0,-0.0902,-0.0955,-0.104,-0.1162,-0.1319,-0.1403,-0.15,-0.1495,-0.1547,-0.154,-0.1444,-0.1307,-0.1217,-0.0918,-0.0727,-0.0542,-0.0347,-0.022,-0.0215,-0.0217,-0.0292,-0.0503,-0.0289,0,0,0,0,0,-0.0887,-0.0938,-0.1032,-0.1172,-0.1316,-0.1459,-0.1607,-0.1611,-0.1721,-0.1783,-0.1626,-0.1451,-0.1215,-0.0926,-0.0788,-0.0487,-0.0403,-0.0307,-0.0302,-0.0121,-0.0268,-0.0236,-0.0258,-0.0056,-0.0057,-0.0057,-0.0057,0,-0.085,-0.0912,-0.1089,-0.1174,-0.1279,-0.148,-0.1612,-0.1786,-0.1809,-0.1846,-0.1796,-0.1615,-0.1482,-0.1063,-0.0832,-0.0491,-0.0397,-0.0324,-0.0135,-0.0278,-0.024,-0.0262,-0.0283,-0.0061,-0.0061,-0.006,-0.006,0,-0.0826,-0.09,-0.1037,-0.1225,-0.1303,-0.1448,-0.1674,-0.1773,-0.1886,-0.1916,-0.1888,-0.1783,-0.1481,-0.1329,-0.09,-0.0728,-0.044,-0.0341,-0.0625,-0.0582,-0.0278,-0.0299,-0.0067,-0.0066,-0.0065,-0.0064,-0.0063,0,-0.0809,-0.0911,-0.1042,-0.1112,-0.1292,-0.1434,-0.1618,-0.1739,-0.1863,-0.1902,-0.1865,-0.1784,-0.1498,-0.1312,-0.1032,-0.0696,-0.066,-0.0384,-0.0321,-0.0431,-0.045,-0.0326,-0.0336,-0.0253,-0.0254,-0.0255,-0.0256,0,-0.0751,-0.0908,-0.1022,-0.108,-0.1267,-0.1385,-0.1517,-0.1671,-0.1753,-0.1817,-0.1803,-0.1703,-0.1597,-0.1288,-0.1001,-0.093,-0.0654,-0.0531,-0.0382,-0.0387,-0.0335,-0.0343,-0.0257,-0.0257,-0.0257,-0.0257,-0.0257,0,-0.0743,-0.081,-0.0956,-0.1124,-0.1167,-0.1289,-0.147,-0.1589,-0.1707,-0.1724,-0.1723,-0.1643,-0.1547,-0.1395,-0.1077,-0.1111,-0.0876,-0.0735,-0.0724,-0.0638,-0.0605,-0.0593,-0.0647,-0.065,-0.0653,-0.0656,-0.0658,0,-0.0666,-0.0785,-0.0839,-0.0996,-0.1068,-0.1138,-0.1278,-0.1382,-0.1427,-0.1505,-0.1504,-0.154,-0.144,-0.1399,-0.1256,-0.1073,-0.0948,-0.1062,-0.0647,-0.0639,-0.0602,-0.063,-0.0809,-0.0699,-0.0694,-0.069,-0.0688,0,-0.0596,-0.0697,-0.0714,-0.0775,-0.0876,-0.0932,-0.107,-0.1182,-0.1255,-0.1291,-0.1373,-0.1436,-0.1347,-0.1356,-0.1309,-0.1166,-0.102,-0.0977,-0.0963,-0.0902,-0.0671,-0.0683,-0.0661,-0.0834,-0.0829,-0.0825,-0.0716,0,-0.0571,-0.0628,-0.066,-0.0736,-0.0796,-0.0857,-0.0914,-0.0977,-0.0992,-0.1022,-0.1125,-0.1118,-0.1136,-0.118,-0.1132,-0.1099,-0.1037,-0.0943,-0.0794,-0.0861,-0.0822,-0.0801,-0.1006,-0.1003,-0.1001,-0.0999,0,0,-0.0484,-0.0538,-0.0532,-0.059,-0.0637,-0.0622,-0.0701,-0.0742,-0.0787,-0.0828,-0.0778,-0.0891,-0.0887,-0.0993,-0.102,-0.1045,-0.0916,-0.094,-0.0881,-0.0869,-0.0857,-0.0819,-0.0802,-0.0994,-0.0993,-0.0992,-0.0991,0,-0.0461,-0.0467,-0.0508,-0.0544,-0.0571,-0.0589,-0.0606,-0.0627,-0.0642,-0.0734,-0.0706,-0.0748,-0.0806,-0.0821,-0.0839,-0.1,-0.0821,-0.1006,-0.1038,-0.0866,-0.0858,-0.0849,-0.0812,-0.0798,-0.0985,-0.0985,-0.0986,0,-0.0406,-0.0412,-0.043,-0.0466,-0.0475,-0.0538,-0.0466,-0.05,-0.0565,-0.0484,-0.0568,-0.0575,-0.0583,-0.0669,-0.0699,-0.0632,-0.0685,-0.0735,-0.0749,-0.0707,-0.0519,-0.0514,-0.0509,-0.0548,-0.0546,-0.0545,0,0,-0.0384,-0.0412,-0.0424,-0.0459,-0.047,-0.0467,-0.0481,-0.0468,-0.0482,-0.0485,-0.0478,-0.0485,-0.0538,-0.0537,-0.0577,-0.0643,-0.0528,-0.0684,-0.0705,-0.0722,-0.069,-0.0509,-0.0507,-0.0541,-0.054,-0.054,0,0,-0.0366,-0.0377,-0.0366,-0.0403,-0.0428,-0.0428,-0.0448,-0.0434,-0.0457,-0.0443,-0.0402,-0.0398,-0.0484,-0.0448,-0.0394,-0.0522,-0.0435,-0.0446,-0.0537,-0.0562,-0.0582,-0.0534,-0.0288,0,0,0,0,0,-0.0346,-0.0382,-0.0373,-0.0378,-0.0402,-0.0444,-0.0448,-0.0414,-0.0376,-0.0403,-0.0401,-0.0333,-0.0415,-0.0366,-0.037,-0.0429,-0.0481,-0.0492,-0.0502,-0.0638,-0.0665,-0.0688,0,0,0,0,0,0,-0.0348,-0.0354,-0.0372,-0.0374,-0.0379,-0.0442,-0.0367,-0.036,-0.0371,-0.0361,-0.0341,-0.0333,-0.0298,-0.0359,-0.0364,-0.0421,-0.0286,-0.0485,-0.0494,-0.0502,-0.0647,-0.0669,-0.0688,0,0,0,0,0,-0.0349,-0.0354,-0.0395,-0.0374,-0.0378,-0.035,-0.0364,-0.0357,-0.0366,-0.0331,-0.0322,-0.0337,-0.0301,-0.0301,-0.0361,-0.0421,-0.0283,-0.0285,-0.0491,-0.0498,-0.0504,-0.0658,0,0,0,0,0,0,-0.035,-0.0355,-0.0396,-0.0396,-0.0338,-0.0346,-0.0344,-0.0355,-0.0333,-0.0326,-0.0324,-0.0316,-0.0304,-0.0303,-0.0304,-0.0425,-0.028,-0.0282,-0.0283,-0.0496,-0.0502,-0.0507,0,0,0,0,0,0,-0.0352,-0.0356,-0.0396,-0.0353,-0.0348,-0.0342,-0.034,-0.0372,-0.0333,-0.0327,-0.032,-0.0321,-0.029,-0.0305,-0.0305,-0.0359,-0.0278,-0.0279,-0.0281,-0.0282,-0.0501,-0.0505,0,0,0,0,0,0,-0.0354,-0.0357,-0.0352,-0.0349,-0.0345,-0.0352,-0.0369,-0.0387,-0.0318,-0.0328,-0.0308,-0.0303,-0.0293,-0.0293,-0.0307,-0.0361,-0.0359,-0.0278,-0.0279,-0.028,-0.028,0,0,0,0,0,0,0,-0.0355,-0.0335,-0.0389,-0.0346,-0.0342,-0.0403,-0.0403,-0.0404,-0.0317,-0.0313,-0.0309,-0.0305,-0.0267,-0.0269,-0.0271,-0.0363,0,0,-0.0277,-0.0278,0,0,0,0,0,0,0,0,-0.0333,-0.0335,-0.0389,-0.0389,-0.0389,-0.0403,-0.0403,-0.0404,-0.0316,-0.0313,-0.031,-0.0307,-0.0268,-0.0269,-0.0271,0,0,0,0,0,0,0,0,0,0,0,0,0,0,0,-0.0389,-0.0389,0,-0.0403,-0.0403,-0.0403,-0.0315,-0.0313,-0.031,-0.0308,-0.0268,-0.0269,-0.0271,0,0,0,0,0,0,0,0,0,0,0,0,0,0,0,0,0,0,0,0,0,0,0,0,0,0,0,0,0,0,0,0,0,0,0,0,0,0,0,0,0,0,0,0,0,0,0,0,0,0,0,0,0,0,0,0,0,0,0,0,0,0,0,0,0,0,0,0,0]}]]]